Weather Roundup
Issued by NWS Springfield, MO

Home | Current Version | Previous Version | Text Only | Print | Product List | Glossary On
Versions: 1 2 3 4 5 6 7 8 9 10 11 12 13 14 15 16 17 18 19 20 21 22 23 24 25 26 27 28 29 30 31 32 33 34 35 36 37 38 39 40 41 42 43 44 45 46 47 48 49 50
000
NZUS99 KSGF 212257
HRRSGF

HOURLY WEATHER
NATIONAL WEATHER SERVICE SPRINGFIELD MO
600 PM CDT MON AUG 21 2017

......SGF CWA......

CITY           SKY/WX    TMP DP  RH WIND       PRES   REMARKS
SPRINGFIELD    SUNNY     88  73  61 SW7       30.05S HX  95
JOPLIN         SUNNY     90  74  59 SW14      30.03S HX  99
ROLLA          SUNNY     88  72  58 SW9       30.06S HX  94
BRANSON        MOSUNNY   86  72  62 S3        30.08S HX  92

......SURROUNDING SGF CWA......

CITY           SKY/WX    TMP DP  RH WIND       PRES   REMARKS
CHANUTE        SUNNY     90  75  61 S13       30.00S HX 100
PARSONS        SUNNY     89  75  63 S10       30.01S HX  99
COFFEYVILLE    MOSUNNY   90  76  63 S9        29.99S HX 101
EMPORIA        MOSUNNY   89  73  59 S15       29.97S HX  97
HARRISON AR    MOSUNNY   85  72  65 S8        30.08S HX  91

......KANSAS AND MISSOURI......

CITY           SKY/WX    TMP DP  RH WIND       PRES   REMARKS
KANSAS CTY INT CLOUDY    78  73  84 SE12      29.97F
SEDALIA        CLOUDY    89  77  67 S8        30.02F HX 101
ST JOSEPH      CLOUDY    78  73  84 S6        29.97F
ST LOUIS       NOT AVBL
WICHITA        CLOUDY    91  69  48 S12       29.95S HX  96
TOPEKA         PTSUNNY   90  75  61 S13G20    29.93F HX 100
OLATHE         MOSUNNY   81  76  84 E7        29.99F

......TENNESSEE......

CITY           SKY/WX    TMP DP  RH WIND       PRES   REMARKS
MEMPHIS        NOT AVBL
NASHVILLE      MOSUNNY   92  65  40 S7        30.09F HX  94

......ARKANSAS.......

CITY           SKY/WX    TMP DP  RH WIND       PRES   REMARKS
FAYETTEVILLE   MOSUNNY   86  75  69 S13       30.07F HX  95
FT SMITH       SUNNY     91  75  59 S7        30.02F HX 101
LITTLE ROCK    MOSUNNY   90  76  63 S9        30.04F HX 101

......OKLAHOMA.......

CITY           SKY/WX    TMP DP  RH WIND       PRES   REMARKS
TULSA          MOSUNNY   92  73  53 S16       29.98S HX 100
PONCA CITY     SUNNY     93  70  46 S8G20     29.96F HX  99
MCALESTER      MOSUNNY   91  75  59 S6        30.04F HX 101
OKLAHOMA CITY  MOSUNNY   90  68  48 SW15      30.02F HX  94

......IOWA............

CITY           SKY/WX    TMP DP  RH WIND       PRES   REMARKS
DES MOINES     NOT AVBL
QUAD CITIES    CLOUDY    79  69  71 S5        29.97R

......ILLINOIS........

CITY           SKY/WX    TMP DP  RH WIND       PRES   REMARKS
QUINCY         NOT AVBL
CHICAGO        CLOUDY    84  65  52 SW16      30.00R



USA.gov is the U.S. government's official web portal to all federal, state and local government web resources and services.